Location: Fort Wayne
(41.1310°N, 85.1290°W)
Time: 10:50:18
(UTC-04:00)

Cosmos 1000 Rocket - Visible Passes

Search period start: 02 September 2015 00:00
Search period end: 12 September 2015 00:00
Orbit: 955 x 992 km, 82.9° (Epoch: 01 September)

Date Brightness Start Highest point End Pass type
(mag) Time Alt. Az. Time Alt. Az. Time Alt. Az.
02 Sep 7.0 01:23:24 11° ENE 01:23:24 11° ENE 01:23:51 10° ENE visible
02 Sep 5.4 03:08:01 45° N 03:08:01 45° N 03:12:14 10° N visible
02 Sep 6.4 04:52:39 14° WNW 04:52:39 14° WNW 04:55:25 10° NNW visible
03 Sep 6.6 01:48:10 18° NE 01:48:10 18° NE 01:50:33 10° NE visible
03 Sep 5.5 03:32:48 38° NNW 03:32:48 38° NNW 03:36:51 10° N visible
04 Sep 6.2 02:12:55 27° NE 02:12:55 27° NE 02:16:02 10° NNE visible
04 Sep 5.9 03:57:33 26° NW 03:57:33 26° NW 04:01:08 10° NNW visible
05 Sep 5.9 02:37:40 34° NNE 02:37:40 34° NNE 02:41:04 10° NNE visible
05 Sep 6.4 04:22:18 16° NW 04:22:18 16° NW 04:24:52 10° NNW visible
06 Sep 6.9 01:17:48 14° NE 01:17:48 14° NE 01:18:59 10° NE visible
06 Sep 5.9 03:02:25 33° N 03:02:25 33° N 03:05:47 10° N visible
07 Sep 6.6 01:42:31 20° NE 01:42:31 20° NE 01:44:43 10° NNE visible
07 Sep 6.1 03:27:09 26° NNW 03:27:09 26° NNW 03:30:11 10° N visible
08 Sep 6.3 02:07:14 26° NNE 02:07:14 26° NNE 02:09:52 10° NNE visible
08 Sep 6.4 03:51:52 17° NW 03:51:52 17° NW 03:54:09 10° NNW visible
09 Sep 6.2 02:31:57 27° N 02:31:57 27° N 02:34:40 10° N visible
09 Sep 6.8 04:16:35 10° NW 04:16:35 10° NW 04:16:54 10° NW visible
10 Sep 6.8 01:12:02 15° NE 01:12:02 15° NE 01:13:19 10° NNE visible
10 Sep 6.3 02:56:39 24° NNW 02:56:39 24° NNW 02:59:11 10° N visible
11 Sep 6.6 01:36:44 20° NNE 01:36:44 20° NNE 01:38:37 10° NNE visible
11 Sep 6.6 03:21:21 18° NNW 03:21:21 18° NNW 03:23:19 10° NNW visible
